Ellensburg, WA
on Thursday, January 24, 2013

Thursday
Previous Day Next Day
Daily Summary
 ActualAverage (KYKM)Record (KYKM)
Temperature
Mean Temperature °F / °C 32°F / 0°C  
Max Temperature 27°F / -3°C 41°F / 5°C 57°F / 13°C (1984)
Min Temperature 15°F / -9°C 24°F / -4°C -11°F / -23°C (1949)
Degree Days
Heating Degree Days 44 33  
Month to date heating degree days 834  
Since 1 July heating degree days 3497  
Cooling Degree Days 0 0  
Month to date cooling degree days 0  
Year to date cooling degree days 0  
Moisture
Dew Point 18°F / -8°C   
Average Humidity 82    
Maximum Humidity 88    
Minimum Humidity 77    
Precipitation
Precipitation 0.00 in / 0.00 cm 0.03 in / 0.76 cm 0.36 in / 0.91 cm (1959)
Month to date precipitation 0.92  
Year to date precipitation 0.92  
Snow
Snow 0.00 in / 0.00 cm 0.10 in / 0.25 cm 2.70 in / 6.86 cm (1972)
Month to date snowfall 4.5  
Year to date snowfall 4.5  
Since 1 July snowfall 17.5  
Snow Depth in / cm   
Wind
Wind Speed 2 mph / 3 km/h   
Max Wind Speed 7 mph / 11 km/h   
Max Gust Speed mph / km/h   
Visibility 4 miles / 6 kilometers   
Events Fog   

Key: T is trace of precipitation, MM is missing value
Source: NWS Daily Summary
Time(PST)TemperatureDew PointHumidity Pressure Visibility Wind DirectionWind SpeedGust SpeedPrecipitationEvents Conditions
2:53 AM 17.1°F / -8.3°C 10.9°F / -11.7°C 77% 30.21 in / 1023.0 hPa - Calm Calm - N/A   Clear
3:23 AM 17.6°F / -8.0°C 12.2°F / -11.0°C 79% 30.15 in / 1020.9 hPa - Calm Calm - N/A   Scattered Clouds
3:32 AM 17.6°F / -8.0°C 14.0°F / -10.0°C 86% 30.15 in / 1020.9 hPa - Calm Calm - N/A   Mostly Cloudy
3:53 AM 18.0°F / -7.8°C 12.9°F / -10.6°C 81% 30.23 in / 1023.6 hPa - Calm Calm - N/A   Overcast
4:53 AM 17.1°F / -8.3°C 12.9°F / -10.6°C 84% 30.24 in / 1023.8 hPa - East 4.6 mph / 7.4 km/h - N/A   Overcast
5:53 AM 16.0°F / -8.9°C 12.0°F / -11.1°C 84% 30.26 in / 1024.6 hPa - Calm Calm - N/A   Overcast
6:53 AM 16.0°F / -8.9°C 10.9°F / -11.7°C 81% 30.27 in / 1024.8 hPa - Calm Calm - N/A   Overcast
7:40 AM 15.8°F / -9.0°C 12.2°F / -11.0°C 86% 30.19 in / 1022.2 hPa 0.2 miles / 0.4 kilometers Calm Calm - N/A Fog Light Freezing Fog
7:53 AM 16.0°F / -8.9°C 12.0°F / -11.1°C 84% 30.27 in / 1024.9 hPa 0.2 miles / 0.4 kilometers Calm Calm - N/A Fog Light Freezing Fog
8:03 AM 15.8°F / -9.0°C 12.2°F / -11.0°C 86% 30.19 in / 1022.2 hPa - East 3.5 mph / 5.6 km/h - N/A   Overcast
8:53 AM 16.0°F / -8.9°C 12.0°F / -11.1°C 84% 30.29 in / 1025.7 hPa 0.2 miles / 0.4 kilometers SSE 4.6 mph / 7.4 km/h - N/A Fog Light Freezing Fog
9:46 AM 19.4°F / -7.0°C 15.8°F / -9.0°C 86% 30.21 in / 1022.9 hPa 1.2 miles / 2.0 kilometers Calm Calm - N/A   Overcast
9:53 AM 19.0°F / -7.2°C 16.0°F / -8.9°C 88% 30.29 in / 1025.7 hPa 3.0 miles / 4.8 kilometers Calm Calm - N/A   Overcast
10:10 AM 19.4°F / -7.0°C 15.8°F / -9.0°C 86% 30.21 in / 1022.9 hPa 2.5 miles / 4.0 kilometers WNW 4.6 mph / 7.4 km/h - N/A   Haze
10:28 AM 21.2°F / -6.0°C 17.6°F / -8.0°C 86% 30.22 in / 1023.2 hPa 1.2 miles / 2.0 kilometers West 4.6 mph / 7.4 km/h - N/A   Overcast
10:38 AM 21.2°F / -6.0°C 15.8°F / -9.0°C 80% 30.22 in / 1023.2 hPa 1.0 miles / 1.6 kilometers WNW 6.9 mph / 11.1 km/h - N/A   Haze
10:51 AM 21.2°F / -6.0°C 17.6°F / -8.0°C 86% 30.23 in / 1023.6 hPa 0.8 miles / 1.2 kilometers WNW 5.8 mph / 9.3 km/h - N/A   Haze
10:53 AM 21.9°F / -5.6°C 17.1°F / -8.3°C 82% 30.30 in / 1026.1 hPa 0.8 miles / 1.2 kilometers West 5.8 mph / 9.3 km/h - N/A   Haze
10:59 AM 21.2°F / -6.0°C 17.6°F / -8.0°C 86% 30.23 in / 1023.6 hPa 1.2 miles / 2.0 kilometers West 5.8 mph / 9.3 km/h - N/A   Overcast
11:53 AM 24.1°F / -4.4°C 19.9°F / -6.7°C 84% 30.27 in / 1024.9 hPa 1.2 miles / 2.0 kilometers Calm Calm - N/A   Overcast
12:30 PM 24.8°F / -4.0°C 21.2°F / -6.0°C 86% 30.19 in / 1022.2 hPa 2.0 miles / 3.2 kilometers Calm Calm - N/A   Overcast
12:53 PM 26.1°F / -3.3°C 21.0°F / -6.1°C 81% 30.26 in / 1024.5 hPa 3.0 miles / 4.8 kilometers East 3.5 mph / 5.6 km/h - N/A   Haze
1:53 PM 27.0°F / -2.8°C 21.0°F / -6.1°C 78% 30.24 in / 1023.9 hPa 4.0 miles / 6.4 kilometers Calm Calm - N/A   Haze
2:53 PM 26.1°F / -3.3°C 21.0°F / -6.1°C 81% 30.23 in / 1023.7 hPa 3.0 miles / 4.8 kilometers ESE 3.5 mph / 5.6 km/h - N/A   Haze
3:35 PM 26.6°F / -3.0°C 21.2°F / -6.0°C 80% 30.16 in / 1021.2 hPa 2.5 miles / 4.0 kilometers Calm Calm - N/A   Overcast
3:53 PM 26.1°F / -3.3°C 21.0°F / -6.1°C 81% 30.24 in / 1023.8 hPa - East 4.6 mph / 7.4 km/h - N/A   Overcast
4:53 PM 26.1°F / -3.3°C 21.0°F / -6.1°C 81% 30.23 in / 1023.7 hPa 5.0 miles / 8.0 kilometers ESE 3.5 mph / 5.6 km/h - N/A   Haze
5:38 PM 26.6°F / -3.0°C 21.2°F / -6.0°C 80% 30.15 in / 1020.9 hPa 7.0 miles / 11.3 kilometers ESE 4.6 mph / 7.4 km/h - N/A   Overcast
5:53 PM 26.1°F / -3.3°C 21.0°F / -6.1°C 81% 30.22 in / 1023.3 hPa 7.0 miles / 11.3 kilometers East 4.6 mph / 7.4 km/h - N/A   Overcast
6:24 PM 26.6°F / -3.0°C 21.2°F / -6.0°C 80% 30.16 in / 1021.2 hPa 6.0 miles / 9.7 kilometers SSE 3.5 mph / 5.6 km/h - N/A   Haze
6:39 PM 26.6°F / -3.0°C 21.2°F / -6.0°C 80% 30.16 in / 1021.2 hPa 6.0 miles / 9.7 kilometers Calm Calm - N/A   Haze
6:49 PM 26.6°F / -3.0°C 21.2°F / -6.0°C 80% 30.17 in / 1021.6 hPa 6.0 miles / 9.7 kilometers NNW 3.5 mph / 5.6 km/h - N/A   Haze
6:53 PM 26.1°F / -3.3°C 21.0°F / -6.1°C 81% 30.25 in / 1024.1 hPa 6.0 miles / 9.7 kilometers Calm Calm - N/A   Haze
7:00 PM 26.6°F / -3.0°C 21.2°F / -6.0°C 80% 30.15 in / 1020.9 hPa 6.0 miles / 9.7 kilometers ENE 3.5 mph / 5.6 km/h - N/A   Haze
7:19 PM 26.6°F / -3.0°C 21.2°F / -6.0°C 80% 30.14 in / 1020.5 hPa 6.0 miles / 9.7 kilometers East 6.9 mph / 11.1 km/h - N/A   Haze
7:53 PM 26.1°F / -3.3°C 21.0°F / -6.1°C 81% 30.22 in / 1023.2 hPa 7.0 miles / 11.3 kilometers SE 5.8 mph / 9.3 km/h - N/A   Overcast
8:53 PM 26.1°F / -3.3°C 21.0°F / -6.1°C 81% 30.22 in / 1023.1 hPa 6.0 miles / 9.7 kilometers Calm Calm - N/A   Haze
9:09 PM 26.6°F / -3.0°C 21.2°F / -6.0°C 80% 30.14 in / 1020.5 hPa 6.0 miles / 9.7 kilometers Calm Calm - N/A   Haze
9:53 PM 26.1°F / -3.3°C 21.0°F / -6.1°C 81% 30.20 in / 1022.7 hPa 5.0 miles / 8.0 kilometers Calm Calm - N/A   Haze
10:53 PM 26.1°F / -3.3°C 21.0°F / -6.1°C 81% 30.20 in / 1022.7 hPa 5.0 miles / 8.0 kilometers Calm Calm - N/A   Haze
11:32 PM 26.6°F / -3.0°C 21.2°F / -6.0°C 80% 30.14 in / 1020.5 hPa 5.0 miles / 8.0 kilometers Calm Calm - N/A   Haze
11:41 PM 26.6°F / -3.0°C 21.2°F / -6.0°C 80% 30.13 in / 1020.2 hPa 5.0 miles / 8.0 kilometers Calm Calm - N/A   Haze
11:53 PM 26.1°F / -3.3°C 19.9°F / -6.7°C 78% 30.19 in / 1022.3 hPa 5.0 miles / 8.0 kilometers Calm Calm - N/A   Haze
Moon Phase
Jan. 24 Jan. 26 Feb. 03 Feb. 10 Feb. 17
Sunrise:07:35 AM (PST) Moon Rise:02:58 PM (PST)1/24
Sunset:04:53 PM (PST) Moon Set:05:39 AM (PST)1/24

Copyright © 2014 The Weather Underground, Inc.